This is the latest recevied weather packets stored in our database for station/object KC4JY. If no packets are shown the sender has not sent any weather packets the latest 10 day(s).
| Time | Temp. | Humidity | Pressure | Rain* | Wind** | Luminosity | Snow |
|---|---|---|---|---|---|---|---|
| 1777316441 | 17.22° C | 64% | 1022.5 hPa | 0 mm | - | - | - |
| 1777315528 | 16.67° C | 66% | 1022.6 hPa | 0 mm | - | - | - |
| 1777314612 | 16.67° C | 64% | 1022.8 hPa | 0 mm | - | - | - |
| 1777313703 | 16.11° C | 66% | 1022.8 hPa | 0 mm | - | - | - |
| 1777312848 | 16.11° C | 68% | 1022.9 hPa | 0 mm | - | - | - |
| 1777311957 | 15° C | 70% | 1022.9 hPa | 0 mm | - | - | - |
| 1777311047 | 15° C | 71% | 1023.2 hPa | 0 mm | - | - | - |
| 1777310119 | 14.44° C | 72% | 1023.2 hPa | 0 mm | - | - | - |
| 1777309262 | 14.44° C | 74% | 1023.2 hPa | 0 mm | - | - | - |
| 1777308367 | 13.89° C | 74% | 1023.3 hPa | 0 mm | - | - | - |
| 1777307436 | 13.33° C | 75% | 1023.5 hPa | 0 mm | - | - | - |
| 1777306540 | 13.33° C | 75% | 1023.5 hPa | 0 mm | - | - | - |
| 1777305616 | 12.78° C | 76% | 1023.7 hPa | 0 mm | - | - | - |
| 1777304712 | 12.22° C | 78% | 1023.8 hPa | 0 mm | - | - | - |
| 1777303853 | 12.22° C | 78% | 1023.8 hPa | 0 mm | - | - | - |
| 1777302956 | 12.22° C | 79% | 1023.9 hPa | 0 mm | - | - | - |
| 1777302090 | 11.67° C | 79% | 1023.9 hPa | 0 mm | - | - | - |
| 1777301128 | 11.67° C | 80% | 1024 hPa | 0 mm | - | - | - |
| 1777300209 | 11.67° C | 79% | 1023.9 hPa | 0 mm | - | - | - |
| 1777299308 | 11.11° C | 78% | 1023.8 hPa | 0 mm | - | - | - |
| 1777298447 | 11.11° C | 79% | 1023.6 hPa | 0 mm | - | - | - |
| 1777297543 | 11.11° C | 81% | 1023.3 hPa | 0 mm | - | - | - |
| 1777296625 | 11.11° C | 82% | 1023.2 hPa | 0 mm | - | - | - |
| 1777295723 | 10.56° C | 82% | 1023.2 hPa | 0 mm | - | - | - |
| 1777294803 | 10.56° C | 81% | 1022.9 hPa | 0 mm | - | - | - |
* Rain latest hour (hover to see other rain measurements)
** Current wind speed in m/s (hover to see current wind gust speed)